Regional Weather Roundup
Issued by NWS Jackson, KY

Home | Current Version | Previous Version | Text Only | Print | Product List | Glossary On
Versions: 1 2 3 4 5 6 7 8 9 10 11 12 13 14 15 16 17 18 19 20 21 22 23 24 25 26 27
000
ASUS43 KJKL 281210
RWRJKL

EAST KENTUCKY HOURLY WEATHER ROUNDUP
NATIONAL WEATHER SERVICE JACKSON KY
800 AM EDT SUN MAY 28 2017

NOTE: "FAIR" INDICATES FEW OR NO CLOUDS BELOW 12,000 FEET WITH
NO SIGNIFICANT WEATHER AND/OR OBSTRUCTIONS TO VISIBILITY.

* THESE REPORTS ARE NOT UNDER NWS QUALITY CONTROL AND MAY NOT
  REPORT WEATHER SUCH AS PRECIPITATION AND FOG.

KYZ079-080-083-085-087-088-110-112-115-119-120-281300
...EASTERN KENTUCKY...

CITY           SKY/WX    TMP DP  RH WIND       PRES   REMARKS
JACKSON        CLOUDY    63  61  93 CALM      29.85F
6HR MIN TEMP:  62; 6HR MAX TEMP:  63;

LONDON         CLOUDY    62  60  93 CALM      29.87R
6HR MIN TEMP:  60; 6HR MAX TEMP:  62;

SOMERSET*      PTSUNNY   61  61 100 CALM      29.87S
MONTICELLO*    CLOUDY    64  62  93 N13       29.88R
6HR MIN TEMP:  62; 6HR MAX TEMP:  64;

WILLIAMSBURG*  CLOUDY    63  63 100 SE3       29.86S
MIDDLESBORO*   CLOUDY    63  61  95 CALM      29.90R
6HR MIN TEMP:  60; 6HR MAX TEMP:  65;

HARLAN APT*    CLOUDY    63  61  94 CALM      29.90R
PIKE CO APT*   PTSUNNY   63  63 100 S3        29.88S
BIG SANDY APT* CLOUDY    65  63  94 S3        29.87S
6HR MIN TEMP:  63; 6HR MAX TEMP:  66;

MOREHEAD APT*  PTSUNNY   64  59  82 VRB5      29.85S
ASHLAND*       PTSUNNY   66  63  88 S5        29.82S
$$

KYZ035-036-041-042-044-050-067-078-099-281300
...CENTRAL KENTUCKY...

CITY           SKY/WX    TMP DP  RH WIND       PRES   REMARKS
MT STERLING*   SUNNY     63  61  94 SW8       29.85S
FLEMING/MASON* SUNNY     63  61  91 S9        29.83F
DANVILLE*      CLOUDY    63  61  94 SW6       29.86R
LEXINGTON      PTSUNNY   64  60  87 S9        29.82F
6HR MIN TEMP:  61; 6HR MAX TEMP:  64;

FRANKFORT      CLOUDY    65  61  87 S9        29.80R
6HR MIN TEMP:  63; 6HR MAX TEMP:  65;

LOUISVILLE     CLOUDY    66  62  87 S9        29.80R
6HR MIN TEMP:  65; 6HR MAX TEMP:  67;

LEBANON*         N/A     63  63 100 S7        29.85R
GLASGOW*       CLOUDY    64  64 100 W3        29.88R
BOWLING GREEN  CLOUDY    65  64  97 CALM      29.87R
6HR MIN TEMP:  65; 6HR MAX TEMP:  67; 6HR PCP:  0.06;

$$

KYZ091>093-OHZ055-061-077-WVZ005-015-034-035-042-281300
...SOUTHERN OHIO/WEST VIRGINIA...

CITY           SKY/WX    TMP DP  RH WIND       PRES   REMARKS
COVINGTON      CLOUDY    64  62  93 S8        29.78S
COLUMBUS       CLOUDY    68  64  87 S7        29.78R
DAYTON         CLOUDY    65  62  90 S12       29.77S
WILMINGTON     CLOUDY    65  63  93 S7        29.78F
HUNTINGTON     PTSUNNY   65  62  90 S7        29.84S
CHARLESTON     CLOUDY    68  63  84 SW7       29.85R
PINEVILLE*     CLOUDY    64  63  97 MISG      29.94S
BECKLEY        CLOUDY    62  60  93 S7        29.92S
BLUEFIELD      CLOUDY    59  57  93 W7        29.94S
LOGAN CO APT*  PTSUNNY   64  63  94 CALM      29.88S
$$

VAZ002-007-008-TNZ017-027-036-066-071-281300
...SOUTHWEST VIRGINIA/EAST TENNESSEE...

CITY           SKY/WX    TMP DP  RH WIND       PRES   REMARKS
WISE*          CLOUDY    61  61 100 CALM      29.94R
JONESVILLE*    PTSUNNY   63  63 100 CALM      29.93R
ABINGDON*      CLOUDY    63  63 100 SW6       29.93R
BRISTOL        PTSUNNY   63  61  93 S5        29.92S
MORRISTOWN*    MOSUNNY   63  61  94 CALM      29.90R
SEVIERVILLE*   SUNNY     61  61 100 N7        29.86R
KNOXVILLE      CLOUDY    64  60  87 NW8       29.86R
LAFOLLETTE*    CLOUDY    63  63 100 CALM      29.90F
OAK RIDGE      CLOUDY    64  62  93 CALM      29.91R
CROSSVILLE     CLOUDY    61  59  93 S6        29.90R
NASHVILLE      LGT RAIN  66  62  87 W13G21    29.91R
$$

...KEY TO REMARKS...
VSB - VISIBILITY IN MILES
WCI - WIND CHILL INDEX
HX  - HEAT INDEX

$$




USA.gov is the U.S. government's official web portal to all federal, state and local government web resources and services.